Location: Budapest
(47.4979°N, 19.0402°E)
Time: 09:19:20
(UTC+02:00)

OTV 5 (USA 277) - Pass Details

Date: 13 October 2017
Orbit: 404 x 417 km, 43.0° (Epoch: 07 September)

Event Time Altitude Azimuth Distance (km) Brightness Sun altitude
Rises 20:13:35 0° 254° (WSW) 2,353 ? -23.3°
Reaches altitude 10° 20:15:46 10° 246° (WSW) 1,490 ? -23.7°
Enters shadow 20:17:28 24° 228° (SW) 904 ? -23.9°
